Wind_Speed
11 12 13 13 14 14 15 16 16 16 17 17 17 17 17 18 18 17 18 19 18 16 15 15 14 13 11 7 16 13 12 10 6 14 20 19 20 19 18 19 23 22 21 19 14 9 8
12 13 13 14 15 16 17 18 17 17 17 18 18 18 18 18 18 17 17 17 17 17 14 14 14 13 9 12 5 9 12 12 12 10 19 21 23 21 23 23 22 26 21 17 22 15 13
13 12 12 12 13 14 15 16 18 19 20 20 18 19 19 19 19 18 17 17 16 15 14 13 12 12 12 22 9 11 12 6 11 17 20 22 23 22 22 19 25 24 20 17 15 18 16
14 14 15 15 15 14 15 16 18 18 19 21 21 21 21 21 19 19 18 16 14 12 12 12 10 9 10 11 11 14 12 13 10 13 18 19 22 23 23 19 23 21 18 16 17 20 23
16 16 17 18 18 18 18 18 19 20 21 21 21 21 22 21 22 21 19 17 13 10 9 9 6 4 11 7 10 5 8 14 13 12 16 18 23 26 23 17 16 17 16 21 22 22 19
15 16 17 17 19 20 21 22 23 24 23 23 22 21 21 21 22 23 21 11 8 8 9 5 7 8 11 9 2 5 7 9 9 8 11 18 20 15 16 14 16 19 18 20 20 20 21
14 14 15 16 17 18 20 21 23 24 24 25 25 24 22 19 18 22 23 12 9 1 6 13 16 19 21 14 7 9 7 6 11 11 11 17 12 19 22 22 24 21 23 24 22 21 21
15 16 17 17 18 18 19 20 22 23 24 24 24 25 21 17 15 20 23 13 10 10 17 21 26 26 29 23 21 18 9 8 14 15 15 14 20 19 16 19 24 25 27 25 24 23 16
15 16 16 17 18 19 20 20 20 23 24 24 24 24 21 14 10 15 12 15 12 12 9 18 20 18 19 17 27 28 21 21 16 18 19 19 17 17 21 21 22 22 21 21 25 24 16
16 17 17 18 18 19 19 19 20 21 23 25 25 24 24 14 7 18 4 17 14 12 5 8 7 4 7 10 12 20 25 27 21 22 20 21 23 22 22 22 20 20 23 24 20 20 16
16 17 18 17 17 18 18 18 18 19 22 24 25 24 21 18 12 12 17 16 13 6 6 5 9 4 1 7 14 8 12 19 25 21 16 25 22 23 24 25 21 21 18 19 20 19 22
16 17 19 18 17 16 16 17 17 18 20 22 23 23 21 13 11 12 18 10 7 3 6 6 6 5 10 13 15 18 16 8 20 22 22 27 30 24 26 23 24 22 21 19 18 15 17
16 18 18 17 15 14 15 16 17 18 19 20 20 20 17 15 13 17 10 10 5 5 8 11 15 15 17 18 14 13 15 13 14 15 18 26 25 25 26 24 22 21 18 11 14 15 20
16 17 16 16 15 14 14 15 16 18 20 20 20 19 15 11 13 10 9 5 6 8 13 22 23 20 20 19 20 20 18 19 19 18 16 19 19 25 25 24 23 18 16 12 26 16 19
15 16 17 14 13 13 13 14 15 17 19 21 20 15 15 11 10 7 6 6 6 9 13 14 20 16 17 18 18 20 20 19 24 23 19 19 27 25 28 23 25 22 20 22 19 20 15
17 17 16 16 13 12 13 14 15 16 18 19 21 18 15 5 3 3 5 10 15 16 21 14 13 11 18 19 17 16 20 23 21 21 23 27 23 24 24 27 25 28 19 17 14 21 23
17 19 20 18 14 12 13 13 15 15 16 15 12 9 2 1 6 3 6 8 13 14 15 7 14 19 20 23 24 22 21 25 28 28 19 22 22 27 25 24 25 19 21 15 16 15 18
19 18 19 19 16 14 13 13 14 15 15 10 6 4 2 2 4 5 9 11 12 15 17 17 21 21 23 23 26 24 24 23 34 33 28 26 24 19 27 25 26 27 23 25 14 24 14
18 17 20 19 17 17 13 14 14 13 12 12 7 16 16 10 6 10 20 23 28 22 21 21 22 21 22 24 25 22 26 37 40 30 19 21 16 20 24 23 25 26 27 22 23 18 23
18 18 22 21 16 17 15 15 14 12 10 9 6 3 5 15 20 17 18 21 23 27 28 24 22 24 24 25 25 28 29 31 38 39 40 28 24 26 19 22 25 28 29 27 23 15 20
19 21 22 22 14 16 18 17 16 12 11 9 6 8 13 7 13 18 19 16 23 24 26 27 23 23 24 25 27 27 26 28 33 37 33 23 28 28 29 31 30 37 34 30 26 26 22
24 20 23 23 18 17 16 17 16 15 13 14 8 7 15 26 27 22 21 22 27 28 25 26 24 24 22 24 25 26 27 21 25 26 26 25 27 20 29 31 32 36 40 33 29 26 25
23 22 23 22 22 23 21 19 19 20 16 18 17 20 20 19 22 16 18 23 27 29 33 36 30 25 25 25 29 31 31 33 27 25 24 19 4 13 24 30 32 34 35 31 29 24 24
24 23 23 24 24 23 22 21 20 23 22 24 25 22 12 13 14 18 23 31 28 30 28 42 30 27 40 36 35 33 34 39 35 29 29 25 17 12 9 23 38 22 31 28 25 27 27
25 27 27 26 27 25 25 24 24 24 25 27 28 26 11 10 24 25 30 25 29 36 30 37 34 36 39 23 11 16 16 23 28 29 27 22 15 6 7 19 22 30 28 28 29 27 27
29 27 26 26 26 27 28 26 25 24 25 27 31 27 24 11 15 33 30 33 20 20 25 35 33 25 8 5 9 13 16 25 19 19 26 25 23 13 9 9 28 25 26 32 26 25 22
28 27 27 28 29 28 27 24 25 27 25 26 33 27 29 12 32 26 22 21 29 26 16 29 26 15 5 4 9 11 20 24 23 25 23 17 19 19 17 11 10 20 28 35 33 16 21
29 28 28 29 28 27 27 26 26 26 26 25 33 25 27 27 37 32 36 39 34 33 18 29 14 8 8 7 6 8 9 17 20 27 26 21 16 15 11 9 17 21 17 31 18 21 22
27 28 28 27 27 27 27 27 28 28 27 25 33 30 27 35 31 37 44 42 40 48 42 33 21 20 6 4 4 6 12 14 21 17 24 22 14 11 12 14 17 11 10 17 14 14 13
Wind_Direction
24 19 16 12 9 7 5 2 360 356 353 350 349 345 339 334 327 320 311 304 305 308 311 314 319 321 322 294 268 285 285 267 254 227 222 226 235 239 247 250 257 257 263 272 295 287 283
23 21 19 14 10 7 5 3 0 357 355 353 353 349 343 339 336 332 322 311 301 299 301 306 310 312 309 267 277 293 292 261 240 242 228 227 232 237 250 252 259 263 264 267 276 276 263
26 28 26 21 14 10 4 359 357 357 354 352 357 353 346 342 340 338 329 321 308 295 294 293 297 304 281 252 261 277 301 266 273 230 232 232 236 245 246 262 266 279 281 272 251 264 267
23 22 18 13 11 9 4 359 355 354 352 349 351 354 347 344 342 340 333 325 314 302 288 286 289 296 263 274 266 261 247 254 266 236 242 240 239 255 266 281 272 263 262 264 259 252 242
14 12 8 7 5 4 3 359 357 354 351 349 351 355 348 346 344 343 339 328 321 311 299 285 287 281 273 256 270 289 251 248 251 263 245 232 230 234 241 246 255 260 248 241 251 258 256
8 5 2 1 359 358 356 356 354 352 351 349 350 359 352 350 348 346 347 330 332 340 343 317 256 272 266 256 256 277 259 249 235 258 241 225 235 237 235 238 239 238 240 242 255 248 241
2 358 357 354 352 352 351 351 350 348 348 347 349 355 357 357 1 358 358 21 359 262 303 272 281 258 284 271 274 287 243 229 223 230 223 235 231 225 227 229 249 248 257 253 246 232 247
354 351 351 348 346 347 345 347 346 343 343 344 348 348 1 357 4 25 20 49 22 328 305 285 263 259 256 262 273 253 236 211 213 220 213 230 231 247 255 251 248 249 259 260 271 271 240
347 347 345 343 343 343 342 344 343 342 341 342 346 349 359 358 5 28 10 18 350 335 270 286 253 247 256 243 248 255 239 229 233 225 227 220 238 221 246 256 246 262 267 263 269 282 290
341 343 342 341 341 340 340 341 340 339 339 339 344 352 359 11 7 7 15 343 338 337 278 265 196 248 228 239 269 254 240 238 226 243 231 245 232 242 221 238 260 263 246 265 291 298 286
336 339 340 340 336 335 335 337 338 335 334 335 341 349 5 18 355 356 322 321 328 320 325 329 136 125 182 218 333 64 222 229 249 238 237 253 239 239 242 237 215 251 272 287 293 246 272
326 328 330 332 331 333 333 337 335 331 329 329 336 342 347 356 360 304 317 324 346 241 245 258 192 215 227 229 251 262 270 250 248 244 253 263 253 256 245 242 243 248 233 236 254 261 260
318 321 325 326 325 329 330 331 332 328 326 327 332 333 336 353 317 322 325 337 265 200 311 273 279 284 301 289 267 262 275 238 245 243 247 260 258 258 258 267 250 235 239 243 243 232 246
317 317 321 320 315 317 326 330 329 326 325 326 331 332 334 316 310 319 350 261 249 256 266 299 311 315 284 281 283 283 281 282 278 247 256 270 268 246 243 250 254 237 244 225 240 243 250
316 317 320 320 310 314 318 325 327 325 323 323 329 329 324 314 306 322 303 244 234 269 308 353 330 293 278 272 274 280 264 259 271 279 279 266 260 263 277 252 234 241 242 243 254 255 270
318 322 319 320 302 307 314 317 321 325 327 331 336 326 311 263 339 359 255 254 271 290 326 337 298 302 298 296 295 294 290 293 270 262 273 280 286 278 265 273 272 223 226 245 242 243 246
306 312 319 321 309 299 303 313 313 317 322 336 342 328 177 244 308 243 234 250 288 304 324 326 307 305 299 297 295 288 281 287 288 293 287 280 283 281 280 263 261 270 217 219 252 231 241
301 303 310 316 314 294 294 301 313 316 319 343 306 275 254 131 269 229 243 258 293 289 296 288 284 282 280 285 285 281 274 269 287 297 293 291 282 276 278 276 266 259 262 210 223 245 240
298 302 303 309 308 311 289 287 300 314 324 324 287 275 269 243 254 258 266 264 262 272 276 280 278 275 278 276 275 267 273 275 280 280 282 294 289 280 280 277 260 253 254 232 217 231 251
299 298 301 307 297 304 298 282 283 296 307 301 286 287 305 225 246 266 278 278 281 278 278 281 280 278 275 269 267 272 270 269 270 275 276 290 277 271 265 269 282 277 247 249 222 224 238
296 293 302 310 303 294 296 300 271 274 278 283 251 253 261 269 263 264 266 276 279 282 284 283 280 275 279 282 283 275 280 279 270 265 270 274 272 269 273 265 262 262 255 243 235 223 236
294 288 290 298 294 295 307 295 275 268 266 256 256 259 267 271 277 279 276 275 279 284 285 281 283 281 284 285 275 281 289 281 279 279 284 256 267 296 269 262 262 254 265 241 244 215 235
294 294 286 288 284 290 286 296 283 268 265 256 256 263 261 266 270 270 268 274 279 283 278 276 275 287 281 274 281 291 289 285 279 273 275 291 275 275 260 252 248 243 249 241 238 232 229
288 289 286 285 288 291 284 286 287 275 267 261 260 270 252 271 267 267 273 282 283 287 293 289 279 278 280 276 270 277 280 276 257 253 253 259 251 260 273 259 241 236 246 249 249 240 227
282 286 289 286 291 288 286 284 281 274 272 265 265 263 257 258 264 276 275 281 279 278 271 266 279 279 282 299 287 264 265 264 251 247 246 235 237 251 248 246 248 243 234 238 251 244 237
283 287 289 289 286 285 285 281 273 276 274 271 265 263 263 263 259 270 272 277 285 293 296 286 280 277 288 244 272 278 276 273 268 260 254 222 210 225 262 276 238 235 231 236 245 245 239
288 289 286 287 286 286 283 281 278 274 276 270 268 261 261 268 270 271 272 273 281 284 290 277 283 292 300 259 264 255 277 275 268 263 263 222 200 217 236 253 277 265 242 229 234 235 231
290 288 290 289 285 284 281 281 277 276 275 274 271 265 261 270 272 266 271 265 271 270 272 274 284 254 231 232 246 259 279 271 258 246 250 246 203 219 238 243 250 235 259 232 252 227 223
290 288 287 285 284 282 280 280 279 274 271 274 274 269 265 265 266 272 268 259 253 270 267 265 266 267 241 275 263 300 281 280 276 265 247 244 199 209 204 209 250 32 338 355 333 90 310
Height
1566 1564 1562 1560 1558 1556 1555 1553 1550 1547 1545 1542 1540 1537 1533 1530 1527 1524 1521 1519 1517 1515 1514 1512 1511 1509 1508 1506 1499 1496 1496 1497 1497 1497 1499 1502 1502 1500 1497 1494 1491 1485 1481 1478 1478 1480 1482
1567 1566 1564 1562 1560 1558 1555 1553 1550 1548 1545 1542 1539 1536 1532 1529 1525 1522 1519 1516 1514 1512 1511 1510 1508 1507 1506 1505 1498 1496 1495 1495 1496 1496 1497 1500 1499 1499 1496 1492 1489 1483 1480 1479 1480 1479 1480
1568 1567 1565 1563 1561 1559 1557 1554 1551 1548 1544 1541 1539 1535 1531 1527 1523 1520 1517 1513 1510 1509 1508 1507 1506 1505 1503 1497 1496 1496 1493 1494 1494 1494 1495 1497 1498 1498 1496 1492 1488 1485 1482 1478 1479 1479 1478
1569 1567 1565 1563 1561 1559 1557 1554 1551 1548 1544 1541 1537 1534 1530 1526 1522 1519 1515 1511 1508 1505 1504 1504 1503 1503 1498 1493 1492 1491 1492 1493 1493 1493 1493 1495 1496 1496 1494 1493 1490 1489 1484 1489 1476 1476 1475
1570 1567 1565 1563 1561 1558 1556 1554 1551 1548 1544 1540 1537 1534 1529 1525 1520 1516 1512 1508 1504 1502 1502 1501 1502 1502 1494 1489 1488 1488 1488 1490 1490 1491 1491 1492 1494 1493 1493 1492 1493 1485 1489 1484 1480 1471 1468
1571 1568 1566 1563 1561 1558 1555 1552 1550 1547 1544 1540 1537 1534 1529 1524 1520 1515 1510 1506 1503 1501 1501 1499 1499 1504 1490 1488 1487 1487 1487 1487 1488 1489 1489 1489 1489 1487 1487 1489 1497 1491 1483 1479 1477 1468 1463
1571 1568 1566 1563 1561 1558 1556 1552 1549 1546 1543 1539 1536 1533 1529 1525 1521 1516 1509 1505 1506 1505 1502 1499 1495 1491 1486 1485 1485 1486 1485 1486 1487 1488 1489 1488 1489 1481 1482 1481 1478 1476 1475 1471 1462 1457 1459
1570 1568 1566 1563 1561 1558 1555 1552 1549 1546 1543 1540 1536 1532 1529 1525 1522 1519 1518 1516 1521 1521 1505 1491 1485 1484 1480 1482 1483 1483 1484 1485 1484 1484 1485 1488 1483 1481 1479 1477 1475 1474 1473 1468 1458 1449 1450
1570 1568 1565 1562 1560 1557 1555 1552 1548 1545 1542 1539 1536 1532 1529 1526 1523 1522 1524 1523 1522 1518 1512 1482 1474 1475 1475 1477 1475 1474 1479 1478 1478 1480 1477 1482 1477 1478 1480 1479 1477 1474 1472 1468 1466 1452 1449
1569 1567 1564 1562 1559 1556 1553 1551 1548 1544 1541 1538 1536 1533 1528 1526 1527 1523 1525 1522 1521 1519 1507 1475 1469 1470 1471 1472 1473 1467 1469 1473 1471 1473 1472 1470 1469 1470 1475 1476 1476 1476 1465 1465 1464 1468 1475
1568 1566 1563 1561 1558 1555 1553 1550 1547 1544 1541 1538 1535 1532 1530 1527 1527 1529 1527 1520 1518 1519 1521 1466 1464 1469 1468 1470 1466 1460 1463 1466 1464 1467 1473 1458 1464 1464 1467 1462 1467 1470 1470 1469 1471 1472 1472
1566 1564 1562 1560 1557 1554 1552 1549 1547 1544 1541 1538 1535 1532 1529 1529 1528 1529 1522 1519 1520 1517 1520 1469 1462 1463 1463 1462 1462 1461 1462 1462 1462 1462 1462 1452 1457 1455 1452 1453 1454 1456 1461 1465 1470 1473 1485
1565 1562 1560 1558 1556 1554 1551 1548 1546 1543 1541 1538 1535 1532 1530 1528 1530 1525 1522 1522 1515 1522 1478 1471 1465 1458 1457 1455 1453 1454 1455 1456 1460 1467 1465 1451 1454 1450 1449 1449 1445 1450 1460 1480 1485 1483 1472
1563 1560 1559 1557 1555 1553 1550 1548 1545 1542 1539 1536 1534 1531 1529 1530 1529 1525 1524 1522 1526 1492 1484 1473 1471 1466 1463 1457 1454 1453 1455 1457 1450 1452 1458 1458 1460 1444 1442 1444 1449 1447 1450 1472 1480 1476 1458
1561 1558 1556 1555 1553 1551 1549 1547 1544 1541 1538 1535 1532 1531 1529 1528 1526 1526 1529 1519 1502 1488 1482 1484 1482 1474 1467 1459 1456 1454 1453 1456 1454 1447 1456 1452 1446 1437 1433 1431 1436 1441 1450 1437 1457 1452 1457
1559 1556 1554 1552 1550 1549 1548 1545 1543 1540 1538 1535 1532 1530 1527 1526 1526 1527 1527 1511 1496 1490 1490 1495 1496 1487 1482 1474 1467 1461 1459 1453 1448 1447 1447 1445 1447 1430 1428 1427 1422 1423 1428 1453 1448 1469 1466
1556 1554 1552 1550 1547 1547 1546 1544 1542 1539 1538 1536 1534 1532 1526 1527 1528 1529 1523 1510 1500 1498 1502 1503 1497 1496 1496 1496 1486 1474 1466 1460 1453 1448 1445 1442 1442 1430 1427 1426 1424 1424 1423 1428 1434 1436 1450
1553 1551 1549 1547 1546 1544 1543 1543 1541 1539 1538 1536 1535 1533 1526 1526 1530 1526 1519 1515 1507 1506 1507 1507 1505 1504 1500 1497 1492 1483 1471 1467 1459 1459 1454 1445 1439 1436 1425 1414 1410 1409 1413 1415 1438 1441 1425
1548 1547 1546 1544 1543 1541 1540 1540 1539 1538 1537 1537 1534 1528 1526 1526 1524 1516 1511 1507 1505 1503 1499 1499 1497 1496 1496 1493 1491 1481 1473 1468 1469 1465 1457 1451 1442 1438 1426 1416 1404 1404 1399 1398 1407 1416 1426
1545 1543 1542 1540 1539 1538 1537 1537 1537 1537 1536 1537 1536 1528 1519 1519 1518 1516 1511 1504 1499 1501 1496 1496 1493 1493 1490 1486 1481 1473 1469 1464 1466 1464 1459 1457 1450 1444 1437 1421 1419 1410 1395 1393 1395 1411 1411
1541 1539 1538 1536 1535 1534 1533 1533 1533 1533 1533 1535 1533 1524 1520 1513 1509 1509 1508 1505 1498 1495 1497 1495 1490 1487 1483 1477 1471 1464 1460 1458 1456 1456 1453 1458 1446 1428 1419 1411 1410 1405 1388 1383 1384 1389 1396
1535 1534 1533 1532 1531 1530 1529 1529 1528 1530 1530 1530 1528 1524 1521 1512 1510 1507 1504 1497 1494 1489 1490 1485 1483 1478 1477 1472 1467 1466 1463 1461 1459 1454 1446 1441 1438 1431 1417 1405 1396 1394 1386 1371 1368 1373 1376
1529 1529 1527 1527 1525 1525 1524 1524 1524 1524 1525 1521 1520 1519 1519 1507 1506 1503 1495 1492 1488 1486 1481 1479 1477 1471 1466 1463 1464 1463 1463 1463 1459 1451 1449 1453 1445 1433 1413 1395 1389 1381 1374 1361 1363 1357 1363
1523 1523 1521 1520 1519 1518 1518 1518 1518 1518 1518 1517 1515 1515 1511 1499 1501 1494 1492 1487 1482 1479 1476 1473 1468 1467 1460 1460 1458 1455 1454 1451 1444 1440 1444 1443 1444 1442 1424 1396 1379 1363 1358 1353 1351 1354 1355
1516 1515 1515 1514 1513 1512 1511 1511 1511 1510 1510 1508 1508 1509 1502 1490 1489 1487 1485 1480 1480 1478 1472 1469 1459 1458 1457 1453 1455 1447 1433 1429 1419 1418 1418 1424 1434 1429 1416 1386 1373 1352 1344 1348 1350 1345 1343
1509 1508 1507 1506 1506 1505 1504 1502 1503 1502 1502 1500 1498 1501 1497 1490 1478 1482 1477 1475 1471 1468 1461 1455 1453 1452 1452 1447 1446 1435 1421 1413 1400 1392 1391 1399 1411 1427 1410 1391 1367 1349 1339 1341 1337 1340 1333
1502 1501 1499 1499 1498 1496 1495 1495 1494 1494 1494 1493 1489 1493 1491 1476 1472 1478 1472 1469 1470 1467 1461 1453 1449 1447 1446 1444 1439 1428 1410 1408 1396 1390 1388 1383 1389 1406 1405 1396 1373 1340 1335 1331 1339 1338 1327
1494 1493 1491 1490 1488 1488 1487 1486 1486 1486 1485 1485 1479 1483 1482 1473 1464 1468 1467 1461 1460 1459 1454 1443 1447 1438 1438 1435 1431 1419 1409 1393 1376 1368 1366 1374 1376 1380 1386 1394 1384 1332 1324 1323 1319 1315 1318
1486 1484 1483 1481 1480 1479 1478 1477 1477 1477 1477 1477 1472 1473 1474 1467 1457 1455 1450 1446 1446 1441 1443 1439 1438 1437 1437 1434 1426 1421 1412 1402 1386 1361 1349 1353 1348 1362 1362 1354 1335 1324 1329 1321 1316 1304 1319